CCM37RF LFKJ-LFPO

Flight info

Callsign CCM37RF
Flight time 1h 22m
Altitude 34000
Route LONSU M622 PIGOS DCT BARSO DCT OKTET DCT GIPNO DCT BULOL DCT IDAVO DCT ARDOL
Aircraft A320/M-SDE3FGHIRWY/LB1

Departure

Time 2026-05-05 10:09
Airport Ajaccio Napoléon Bonaparte airport (LFKJ)

Arrival

Time 2026-05-05 11:32
Airport Paris-Orly Airport (LFPO)
Time Latitude Longitude Altitude Speed Heading
2026-05-05 09:49 41.91901 8.79542 26 ft 0 kts 345°
2026-05-05 10:03 41.91902 8.79543 26 ft 1 kts 357°
2026-05-05 10:04 41.91910 8.79566 29 ft 3 kts 76°
2026-05-05 10:04 41.91912 8.79597 27 ft 5 kts 86°
2026-05-05 10:04 41.91956 8.79643 29 ft 15 kts 23°
2026-05-05 10:04 41.92041 8.79696 29 ft 13 kts 25°
2026-05-05 10:05 41.92118 8.79744 28 ft 11 kts 25°
2026-05-05 10:05 41.92186 8.79788 26 ft 10 kts 25°
2026-05-05 10:05 41.92265 8.79836 27 ft 14 kts 25°
2026-05-05 10:05 41.92356 8.79892 30 ft 17 kts 24°
2026-05-05 10:06 41.92492 8.79976 28 ft 23 kts 26°
2026-05-05 10:06 41.92640 8.80069 29 ft 25 kts 25°
2026-05-05 10:06 41.92793 8.80182 27 ft 25 kts 38°
2026-05-05 10:06 41.92913 8.80342 29 ft 17 kts 45°
2026-05-05 10:07 41.92964 8.80452 31 ft 12 kts 88°
2026-05-05 10:07 41.92963 8.80465 31 ft 2 kts 95°
2026-05-05 10:07 41.92949 8.80519 32 ft 9 kts 112°
2026-05-05 10:07 41.92962 8.80593 31 ft 9 kts 43°
2026-05-05 10:08 41.93001 8.80624 31 ft 14 kts 25°
2026-05-05 10:08 41.93151 8.80661 29 ft 11 kts 39°
2026-05-05 10:08 41.93142 8.80709 31 ft 7 kts 151°
2026-05-05 10:08 41.93095 8.80686 32 ft 14 kts 204°
2026-05-05 10:09 41.92553 8.80348 24 ft 111 kts 204°
2026-05-05 10:09 41.92007 8.80006 21 ft 150 kts 204°
2026-05-05 10:09 41.91022 8.79407 529 ft 155 kts 207°
2026-05-05 10:09 41.90245 8.78408 1173 ft 158 kts 240°
2026-05-05 10:10 41.89726 8.77106 1859 ft 158 kts 240°
2026-05-05 10:10 41.89137 8.75737 2146 ft 180 kts 238°
2026-05-05 10:10 41.88462 8.74223 2483 ft 199 kts 238°
2026-05-05 10:10 41.87727 8.72539 2794 ft 220 kts 238°
2026-05-05 10:11 41.86905 8.70661 3169 ft 244 kts 239°
2026-05-05 10:11 41.86029 8.68664 3919 ft 251 kts 239°
2026-05-05 10:11 41.85136 8.66638 4807 ft 254 kts 240°
2026-05-05 10:11 41.84294 8.64550 5682 ft 256 kts 250°
2026-05-05 10:12 41.84011 8.62193 6530 ft 260 kts 272°
2026-05-05 10:12 41.84468 8.59832 7328 ft 267 kts 294°
2026-05-05 10:12 41.85635 8.57866 8144 ft 276 kts 318°
2026-05-05 10:12 41.87344 8.56606 8975 ft 284 kts 332°
2026-05-05 10:13 41.89144 8.55551 9770 ft 288 kts 332°
2026-05-05 10:13 41.90994 8.54469 10415 ft 296 kts 332°
2026-05-05 10:13 41.92953 8.53312 10618 ft 320 kts 332°
2026-05-05 10:13 41.95053 8.52064 10939 ft 337 kts 332°
2026-05-05 10:14 41.97216 8.50782 11559 ft 343 kts 332°
2026-05-05 10:14 41.99420 8.49479 12251 ft 348 kts 332°
2026-05-05 10:14 42.01647 8.48163 12963 ft 352 kts 331°
2026-05-05 10:14 42.03908 8.46823 13660 ft 357 kts 331°
2026-05-05 10:15 42.06193 8.45461 14285 ft 361 kts 331°
2026-05-05 10:15 42.08499 8.44084 14882 ft 364 kts 331°
2026-05-05 10:15 42.10823 8.42701 15516 ft 368 kts 331°
2026-05-05 10:15 42.13175 8.41301 16148 ft 371 kts 331°
2026-05-05 10:16 42.15549 8.39887 16783 ft 375 kts 331°
2026-05-05 10:16 42.17940 8.38462 17383 ft 378 kts 331°
2026-05-05 10:16 42.20354 8.37021 17976 ft 381 kts 331°
2026-05-05 10:16 42.22792 8.35567 18523 ft 384 kts 331°
2026-05-05 10:17 42.25245 8.34102 19057 ft 387 kts 331°
2026-05-05 10:17 42.27713 8.32622 19599 ft 389 kts 330°
2026-05-05 10:17 42.30203 8.31127 20147 ft 392 kts 330°
2026-05-05 10:17 42.32697 8.29627 20699 ft 394 kts 330°
2026-05-05 10:18 42.35176 8.28135 21230 ft 396 kts 330°
2026-05-05 10:18 42.37703 8.26616 21766 ft 399 kts 329°
2026-05-05 10:18 42.40244 8.25086 22295 ft 401 kts 329°
2026-05-05 10:18 42.42802 8.23545 22816 ft 403 kts 329°
2026-05-05 10:19 42.45373 8.21996 23321 ft 406 kts 329°
2026-05-05 10:19 42.47960 8.20437 23768 ft 408 kts 329°
2026-05-05 10:19 42.50559 8.18870 24160 ft 410 kts 329°
2026-05-05 10:20 42.56365 8.15360 24985 ft 416 kts 329°
2026-05-05 10:20 42.59046 8.13739 25340 ft 418 kts 329°
2026-05-05 10:20 42.61710 8.12124 25705 ft 421 kts 329°
2026-05-05 10:20 42.64388 8.10494 26053 ft 423 kts 329°
2026-05-05 10:21 42.67080 8.08856 26394 ft 425 kts 329°
2026-05-05 10:21 42.69790 8.07205 26731 ft 428 kts 329°
2026-05-05 10:21 42.72511 8.05545 27058 ft 430 kts 329°
2026-05-05 10:21 42.75251 8.03873 27404 ft 433 kts 329°
2026-05-05 10:22 42.78003 8.02178 27712 ft 434 kts 328°
2026-05-05 10:22 42.80707 8.00345 28034 ft 435 kts 325°
2026-05-05 10:22 42.83361 7.98372 28343 ft 435 kts 323°
2026-05-05 10:22 42.85992 7.96307 28668 ft 437 kts 322°
2026-05-05 10:23 42.88622 7.94206 28943 ft 439 kts 322°
2026-05-05 10:23 42.91269 7.92105 29233 ft 442 kts 323°
2026-05-05 10:23 42.93039 7.90720 29416 ft 443 kts 323°
2026-05-05 10:23 42.96614 7.87970 29793 ft 447 kts 324°
2026-05-05 10:24 42.99336 7.85900 30046 ft 449 kts 324°
2026-05-05 10:24 43.02075 7.83830 30268 ft 451 kts 324°
2026-05-05 10:24 43.04826 7.81751 30471 ft 453 kts 324°
2026-05-05 10:24 43.07582 7.79660 30679 ft 454 kts 324°
2026-05-05 10:25 43.10349 7.77548 30877 ft 456 kts 323°
2026-05-05 10:25 43.12181 7.76138 31032 ft 456 kts 323°
2026-05-05 10:25 43.15878 7.73277 31407 ft 455 kts 323°
2026-05-05 10:25 43.18634 7.71139 31688 ft 456 kts 323°
2026-05-05 10:26 43.20494 7.69693 31856 ft 456 kts 323°
2026-05-05 10:26 43.24151 7.66849 32204 ft 456 kts 323°
2026-05-05 10:26 43.25979 7.65429 32383 ft 456 kts 323°
2026-05-05 10:26 43.28740 7.63279 32644 ft 456 kts 323°
2026-05-05 10:27 43.31497 7.61129 32908 ft 456 kts 323°
2026-05-05 10:27 43.34256 7.58983 33183 ft 456 kts 323°
2026-05-05 10:27 43.37021 7.56833 33449 ft 456 kts 323°
2026-05-05 10:27 43.39784 7.54683 33731 ft 457 kts 323°
2026-05-05 10:28 43.42544 7.52531 33937 ft 458 kts 323°
2026-05-05 10:28 43.45302 7.50385 33977 ft 452 kts 323°
2026-05-05 10:28 43.50755 7.46140 33975 ft 449 kts 323°
2026-05-05 10:29 43.56170 7.41887 33978 ft 448 kts 323°
2026-05-05 10:29 43.61586 7.37620 33974 ft 448 kts 323°
2026-05-05 10:30 43.66876 7.33125 33975 ft 445 kts 319°
2026-05-05 10:30 43.71989 7.28338 33973 ft 443 kts 318°
2026-05-05 10:31 43.77050 7.23556 33974 ft 444 kts 318°
2026-05-05 10:31 43.82190 7.18792 33980 ft 444 kts 319°
2026-05-05 10:32 43.87355 7.14061 33968 ft 444 kts 319°
2026-05-05 10:32 43.92505 7.09332 33954 ft 442 kts 319°
2026-05-05 10:33 43.97649 7.04585 33962 ft 444 kts 319°
2026-05-05 10:33 44.02789 6.99822 33974 ft 444 kts 319°
2026-05-05 10:34 44.07934 6.95037 33960 ft 444 kts 319°
2026-05-05 10:34 44.13075 6.90251 33947 ft 445 kts 319°
2026-05-05 10:35 44.18215 6.85456 33949 ft 445 kts 319°
2026-05-05 10:35 44.23324 6.80680 33991 ft 445 kts 318°
2026-05-05 10:36 44.28462 6.75857 33976 ft 445 kts 317°
2026-05-05 10:36 44.33594 6.71027 33966 ft 445 kts 317°
2026-05-05 10:37 44.38726 6.66187 33955 ft 445 kts 317°
2026-05-05 10:37 44.43856 6.61339 33966 ft 445 kts 318°
2026-05-05 10:38 44.48982 6.56487 33966 ft 444 kts 318°
2026-05-05 10:38 44.54072 6.51673 33970 ft 444 kts 318°
2026-05-05 10:39 44.59193 6.46820 33966 ft 444 kts 318°
2026-05-05 10:39 44.64314 6.41964 33973 ft 444 kts 317°
2026-05-05 10:40 44.69430 6.37087 33978 ft 444 kts 317°
2026-05-05 10:40 44.74529 6.32205 33973 ft 443 kts 317°
2026-05-05 10:41 44.79636 6.27326 33969 ft 443 kts 317°
2026-05-05 10:41 44.84725 6.22448 33967 ft 443 kts 317°
2026-05-05 10:42 44.92323 6.15130 33949 ft 443 kts 317°
2026-05-05 10:43 44.97414 6.10219 33971 ft 443 kts 317°
2026-05-05 10:43 45.02511 6.05289 33952 ft 444 kts 317°
2026-05-05 10:44 45.07613 6.00351 33924 ft 445 kts 317°
2026-05-05 10:44 45.12718 5.95387 33917 ft 446 kts 318°
2026-05-05 10:45 45.17837 5.90400 33931 ft 447 kts 317°
2026-05-05 10:45 45.22960 5.85410 33926 ft 446 kts 317°
2026-05-05 10:46 45.28081 5.80406 33933 ft 446 kts 318°
2026-05-05 10:46 45.33190 5.75393 33948 ft 447 kts 318°
2026-05-05 10:47 45.38310 5.70369 33929 ft 447 kts 318°
2026-05-05 10:47 45.43438 5.65323 33929 ft 448 kts 318°
2026-05-05 10:48 45.48557 5.60270 33914 ft 449 kts 319°
2026-05-05 10:48 45.53671 5.55212 33908 ft 450 kts 319°
2026-05-05 10:49 45.58875 5.50181 33915 ft 452 kts 321°
2026-05-05 10:49 45.64227 5.45439 33929 ft 454 kts 323°
2026-05-05 10:50 45.69593 5.40766 33909 ft 455 kts 323°
2026-05-05 10:50 45.74972 5.35987 33903 ft 455 kts 322°
2026-05-05 10:51 45.80362 5.31126 33901 ft 455 kts 322°
2026-05-05 10:51 45.85721 5.26274 33903 ft 456 kts 323°
2026-05-05 10:52 45.91088 5.21418 33899 ft 457 kts 323°
2026-05-05 10:52 45.96432 5.16581 33897 ft 457 kts 323°
2026-05-05 10:53 46.01816 5.11695 33929 ft 458 kts 323°
2026-05-05 10:53 46.07465 5.07353 33915 ft 463 kts 333°
2026-05-05 10:54 46.13371 5.03619 33910 ft 464 kts 332°
2026-05-05 10:54 46.19272 4.99850 33904 ft 464 kts 332°
2026-05-05 10:55 46.25176 4.96078 33904 ft 464 kts 332°
2026-05-05 10:55 46.31085 4.92290 33899 ft 465 kts 333°
2026-05-05 10:56 46.36994 4.88492 33903 ft 465 kts 333°
2026-05-05 10:56 46.42908 4.84684 33898 ft 465 kts 333°
2026-05-05 10:57 46.48824 4.80859 33923 ft 465 kts 334°
2026-05-05 10:57 46.54705 4.77054 33912 ft 465 kts 334°
2026-05-05 10:58 46.60602 4.73237 33909 ft 465 kts 333°
2026-05-05 10:58 46.66528 4.69382 33896 ft 466 kts 333°
2026-05-05 10:59 46.72433 4.65527 33886 ft 465 kts 333°
2026-05-05 10:59 46.78345 4.61659 33868 ft 465 kts 333°
2026-05-05 11:00 46.84270 4.57832 33868 ft 464 kts 334°
2026-05-05 11:00 46.90157 4.54046 33861 ft 464 kts 334°
2026-05-05 11:01 46.96055 4.50224 33885 ft 464 kts 334°
2026-05-05 11:01 47.01987 4.46359 33877 ft 464 kts 334°
2026-05-05 11:02 47.07853 4.42521 33709 ft 465 kts 334°
2026-05-05 11:02 47.10827 4.40575 33424 ft 464 kts 334°
2026-05-05 11:02 47.13751 4.38662 33153 ft 462 kts 334°
2026-05-05 11:02 47.16690 4.36741 32874 ft 460 kts 335°
2026-05-05 11:03 47.19597 4.34839 32607 ft 459 kts 335°
2026-05-05 11:03 47.22529 4.32916 32336 ft 457 kts 335°
2026-05-05 11:03 47.25387 4.31033 31895 ft 453 kts 335°
2026-05-05 11:03 47.28262 4.29137 31309 ft 451 kts 335°
2026-05-05 11:04 47.31118 4.27253 30731 ft 449 kts 335°
2026-05-05 11:04 47.33946 4.25385 30189 ft 447 kts 335°
2026-05-05 11:04 47.36773 4.23513 29583 ft 446 kts 335°
2026-05-05 11:04 47.39581 4.21652 29038 ft 442 kts 335°
2026-05-05 11:05 47.42378 4.19792 28497 ft 438 kts 335°
2026-05-05 11:05 47.45189 4.17923 27960 ft 434 kts 335°
2026-05-05 11:05 47.47893 4.16127 27496 ft 430 kts 336°
2026-05-05 11:05 47.50610 4.14321 27058 ft 424 kts 336°
2026-05-05 11:06 47.53273 4.12551 26619 ft 419 kts 336°
2026-05-05 11:06 47.55903 4.10801 26209 ft 414 kts 336°
2026-05-05 11:06 47.58550 4.09036 25778 ft 411 kts 336°
2026-05-05 11:06 47.61125 4.07315 25372 ft 407 kts 336°
2026-05-05 11:07 47.63690 4.05599 24946 ft 403 kts 336°
2026-05-05 11:07 47.66197 4.03920 24537 ft 400 kts 336°
2026-05-05 11:07 47.68773 4.02194 24121 ft 396 kts 336°
2026-05-05 11:07 47.71255 4.00526 23723 ft 392 kts 336°
2026-05-05 11:08 47.73747 3.98849 23310 ft 388 kts 336°
2026-05-05 11:08 47.76177 3.97209 22886 ft 385 kts 334°
2026-05-05 11:08 47.78463 3.95176 22500 ft 383 kts 323°
2026-05-05 11:08 47.80428 3.92589 22112 ft 380 kts 312°
2026-05-05 11:09 47.82069 3.89489 21719 ft 377 kts 302°
2026-05-05 11:09 47.83474 3.86329 21335 ft 375 kts 302°
2026-05-05 11:09 47.84954 3.83011 20936 ft 373 kts 302°
2026-05-05 11:09 47.86371 3.79843 20567 ft 371 kts 302°
2026-05-05 11:10 47.87800 3.76647 20192 ft 368 kts 302°
2026-05-05 11:10 47.89208 3.73488 19816 ft 366 kts 302°
2026-05-05 11:10 47.90617 3.70316 19440 ft 364 kts 302°
2026-05-05 11:10 47.92011 3.67170 19071 ft 362 kts 302°
2026-05-05 11:11 47.93375 3.64083 18711 ft 360 kts 301°
2026-05-05 11:11 47.94755 3.60955 18341 ft 358 kts 301°
2026-05-05 11:11 47.96124 3.57867 17952 ft 356 kts 303°
2026-05-05 11:11 47.97720 3.55050 17516 ft 356 kts 313°
2026-05-05 11:12 47.99458 3.52418 17133 ft 354 kts 313°
2026-05-05 11:12 48.01196 3.49783 16663 ft 356 kts 313°
2026-05-05 11:12 48.02915 3.47169 16412 ft 351 kts 313°
2026-05-05 11:12 48.04616 3.44573 15994 ft 349 kts 313°
2026-05-05 11:13 48.06289 3.42015 15413 ft 344 kts 313°
2026-05-05 11:13 48.07956 3.39463 14736 ft 341 kts 313°
2026-05-05 11:13 48.09603 3.36936 14266 ft 339 kts 313°
2026-05-05 11:13 48.11249 3.34419 13818 ft 337 kts 313°
2026-05-05 11:14 48.12884 3.31915 13344 ft 335 kts 313°
2026-05-05 11:14 48.14507 3.29425 12895 ft 334 kts 313°
2026-05-05 11:14 48.15575 3.27780 12681 ft 331 kts 313°
2026-05-05 11:14 48.17155 3.25344 12506 ft 322 kts 313°
2026-05-05 11:15 48.18706 3.22951 12232 ft 318 kts 314°
2026-05-05 11:15 48.20240 3.20589 11928 ft 313 kts 314°
2026-05-05 11:15 48.21760 3.18252 11540 ft 314 kts 314°
2026-05-05 11:15 48.23276 3.15917 11214 ft 311 kts 314°
2026-05-05 11:16 48.25279 3.12827 10828 ft 310 kts 314°
2026-05-05 11:16 48.26289 3.11266 10606 ft 308 kts 314°
2026-05-05 11:16 48.27803 3.08936 10222 ft 315 kts 314°
2026-05-05 11:16 48.29339 3.06570 9826 ft 317 kts 315°
2026-05-05 11:17 48.30870 3.04193 9396 ft 315 kts 314°
2026-05-05 11:17 48.32392 3.01841 8981 ft 312 kts 314°
2026-05-05 11:17 48.33872 2.99543 8553 ft 298 kts 315°
2026-05-05 11:17 48.35279 2.97309 8143 ft 291 kts 315°
2026-05-05 11:18 48.36656 2.95165 7753 ft 288 kts 315°
2026-05-05 11:18 48.38043 2.93022 7367 ft 283 kts 315°
2026-05-05 11:18 48.39428 2.90895 6967 ft 289 kts 316°
2026-05-05 11:18 48.40841 2.88717 6805 ft 287 kts 316°
2026-05-05 11:19 48.42215 2.86565 6827 ft 284 kts 314°
2026-05-05 11:19 48.43435 2.84225 6839 ft 285 kts 305°
2026-05-05 11:19 48.44426 2.81633 6838 ft 286 kts 297°
2026-05-05 11:19 48.45159 2.78850 6841 ft 287 kts 288°
2026-05-05 11:20 48.45630 2.75925 6843 ft 287 kts 280°
2026-05-05 11:20 48.45829 2.72925 6840 ft 288 kts 273°
2026-05-05 11:20 48.45937 2.69937 6841 ft 288 kts 274°
2026-05-05 11:20 48.46055 2.66920 6842 ft 288 kts 274°
2026-05-05 11:21 48.46175 2.63908 6833 ft 288 kts 274°
2026-05-05 11:21 48.46300 2.60893 6828 ft 288 kts 274°
2026-05-05 11:21 48.46425 2.57880 6835 ft 288 kts 274°
2026-05-05 11:21 48.46540 2.54866 6836 ft 288 kts 274°
2026-05-05 11:22 48.46655 2.51844 6695 ft 288 kts 274°
2026-05-05 11:22 48.46765 2.48852 6501 ft 286 kts 274°
2026-05-05 11:22 48.46878 2.45856 6308 ft 285 kts 274°
2026-05-05 11:22 48.46988 2.42883 6102 ft 284 kts 274°
2026-05-05 11:23 48.47103 2.39917 5905 ft 283 kts 273°
2026-05-05 11:23 48.47216 2.36957 5746 ft 283 kts 274°
2026-05-05 11:23 48.47326 2.34016 5591 ft 282 kts 274°
2026-05-05 11:23 48.47436 2.31070 5438 ft 282 kts 274°
2026-05-05 11:24 48.47544 2.28119 5283 ft 282 kts 274°
2026-05-05 11:24 48.47644 2.25183 5127 ft 280 kts 274°
2026-05-05 11:24 48.47752 2.22246 4969 ft 280 kts 277°
2026-05-05 11:24 48.48265 2.19456 4813 ft 275 kts 300°
2026-05-05 11:25 48.49398 2.17169 4665 ft 272 kts 314°
2026-05-05 11:25 48.50645 2.15077 4509 ft 262 kts 314°
2026-05-05 11:25 48.51819 2.13108 4386 ft 248 kts 314°
2026-05-05 11:25 48.52944 2.11219 4256 ft 236 kts 315°
2026-05-05 11:26 48.54016 2.09420 4072 ft 226 kts 316°
2026-05-05 11:26 48.55059 2.07712 3906 ft 216 kts 322°
2026-05-05 11:26 48.56349 2.06765 3722 ft 204 kts 358°
2026-05-05 11:26 48.57704 2.07132 3552 ft 199 kts 26°
2026-05-05 11:27 48.58829 2.08282 3375 ft 195 kts 52°
2026-05-05 11:27 48.59647 2.09930 3206 ft 197 kts 44°
2026-05-05 11:27 48.60787 2.11068 3059 ft 198 kts 30°
2026-05-05 11:27 48.62017 2.12036 2804 ft 200 kts 29°
2026-05-05 11:28 48.63258 2.12960 2539 ft 196 kts 28°
2026-05-05 11:28 48.64436 2.13838 2332 ft 183 kts 28°
2026-05-05 11:28 48.65397 2.14952 2089 ft 170 kts 53°
2026-05-05 11:28 48.65947 2.16441 1952 ft 154 kts 62°
2026-05-05 11:29 48.66441 2.17769 1758 ft 138 kts 56°
2026-05-05 11:29 48.66926 2.18959 1730 ft 131 kts 54°
2026-05-05 11:29 48.67433 2.20084 1566 ft 128 kts 53°
2026-05-05 11:29 48.67946 2.21199 1488 ft 131 kts 54°
2026-05-05 11:30 48.68465 2.22331 1327 ft 129 kts 53°
2026-05-05 11:30 48.69002 2.23425 1211 ft 132 kts 50°
2026-05-05 11:30 48.69526 2.24571 952 ft 133 kts 58°
2026-05-05 11:30 48.69906 2.25828 850 ft 131 kts 61°
2026-05-05 11:31 48.70331 2.27043 827 ft 127 kts 58°
2026-05-05 11:31 48.70763 2.28222 755 ft 128 kts 57°
2026-05-05 11:31 48.71186 2.29425 624 ft 132 kts 60°
2026-05-05 11:31 48.71625 2.30628 526 ft 130 kts 60°
2026-05-05 11:32 48.72050 2.31843 376 ft 130 kts 58°
2026-05-05 11:32 48.72453 2.32979 300 ft 0 kts 58°
2026-05-05 11:32 48.72456 2.32986 300 ft 10 kts 58°
2026-05-05 11:32 48.72607 2.33404 299 ft 62 kts 61°
2026-05-05 11:33 48.72764 2.33939 303 ft 47 kts 81°
2026-05-05 11:33 48.72808 2.34401 300 ft 43 kts 82°
2026-05-05 11:33 48.72848 2.34796 299 ft 35 kts 84°
2026-05-05 11:33 48.72874 2.35118 298 ft 20 kts 82°
2026-05-05 11:34 48.72886 2.35237 298 ft 12 kts 82°
2026-05-05 11:34 48.72900 2.35383 298 ft 16 kts 82°
2026-05-05 11:34 48.72894 2.35539 299 ft 5 kts 143°
2026-05-05 11:34 48.72854 2.35559 302 ft 6 kts 161°
2026-05-05 11:35 48.72808 2.35581 301 ft 9 kts 164°
2026-05-05 11:35 48.72740 2.35609 299 ft 11 kts 166°
2026-05-05 11:35 48.72677 2.35655 298 ft 10 kts 109°
2026-05-05 11:35 48.72683 2.35714 299 ft 0 kts 81°
2026-05-05 11:36 48.72683 2.35721 299 ft 1 kts 81°
2026-05-05 11:36 48.72684 2.35729 298 ft 0 kts 81°